RH
8 9 8 7 6 6 6 5 5 5 5 4 3 3 3 3 3 2 2 2 2 2 3 3 10 29 50 23 23 31 35 46 48 62 75 76 57 37 16 10 17 39 50 48 32 15 5
9 9 8 8 7 6 7 7 8 7 6 5 4 4 4 3 4 4 3 4 4 3 3 3 3 4 18 44 33 25 28 34 39 47 60 80 75 67 52 26 12 13 32 42 31 11 10
9 8 8 8 8 8 9 9 9 8 7 5 4 4 4 4 5 4 5 6 5 4 4 4 3 3 3 11 37 45 27 24 24 30 42 59 87 74 70 60 35 16 8 24 40 31 11
10 9 8 8 9 9 10 10 10 8 8 7 6 5 5 6 6 6 6 5 4 4 4 3 3 3 3 3 8 33 47 42 26 17 17 31 53 78 65 75 60 45 21 9 13 34 35
11 10 9 12 12 12 12 12 10 9 9 8 6 5 5 7 8 8 6 5 5 5 5 4 3 3 3 3 3 8 34 50 49 33 14 9 18 44 57 64 72 60 43 23 12 8 20
12 11 13 13 13 14 15 12 11 10 9 8 6 5 6 8 10 8 7 6 5 4 4 4 4 3 3 3 3 3 7 35 51 53 40 14 8 13 34 53 51 58 56 51 27 18 8
13 13 15 14 15 15 14 14 13 11 10 8 6 6 7 10 10 8 8 6 6 5 5 4 5 5 5 4 3 3 3 7 28 54 57 45 18 15 25 29 41 68 69 65 56 35 22
15 16 15 14 15 15 16 17 14 11 10 9 7 6 9 12 10 8 9 7 10 26 36 19 10 6 6 6 4 4 4 3 7 26 50 62 46 26 11 7 16 57 51 57 74 62 44
18 17 16 16 18 17 17 17 16 16 14 10 7 7 11 14 10 9 9 8 22 48 69 87 79 53 14 6 6 5 4 4 3 8 23 49 55 50 24 12 7 10 30 57 67 78 68
22 18 17 19 19 21 20 20 19 18 14 11 7 8 13 14 11 10 10 9 30 61 93 97 89 83 89 64 19 7 5 5 4 4 10 22 50 60 49 26 14 9 7 19 64 75 63
26 23 22 23 23 24 24 25 23 19 17 13 9 10 14 15 12 12 12 11 40 58 77 86 88 82 100 99 86 31 8 8 8 7 7 12 26 51 60 56 26 23 13 10 11 38 81
29 29 27 25 24 25 26 27 26 21 20 15 12 11 15 16 14 14 13 12 26 52 58 72 76 89 100 100 100 79 45 13 15 12 9 11 17 30 60 63 47 24 19 17 14 14 19
19 27 31 33 29 27 27 30 29 25 22 18 14 13 17 16 16 14 16 14 18 35 58 49 55 60 93 99 100 90 100 42 26 28 15 15 13 21 33 62 75 47 27 28 31 23 15
11 14 22 30 33 33 30 28 32 29 25 22 16 15 20 19 18 16 19 17 16 17 29 48 60 48 56 80 100 100 99 83 43 28 46 23 18 22 34 43 77 86 62 32 38 48 50
15 17 16 18 26 33 36 32 33 34 31 26 20 17 21 22 21 18 18 23 19 18 20 23 31 40 44 41 75 100 100 100 80 41 48 36 66 31 28 42 66 74 91 79 43 41 33
17 14 20 25 26 30 38 41 40 40 35 30 24 19 21 24 24 22 20 23 27 21 21 23 29 29 30 33 42 80 99 100 99 74 50 30 59 28 32 42 65 90 100 96 94 81 58
25 11 17 22 29 35 36 41 43 44 39 33 27 21 21 23 27 26 24 21 28 32 24 25 27 34 38 26 27 33 66 92 100 100 79 50 35 44 27 68 84 94 100 100 100 100 99
29 10 13 21 24 32 45 43 44 48 41 34 29 26 22 25 28 32 28 24 23 28 34 27 29 32 36 43 34 28 32 57 96 94 90 78 57 38 44 27 63 100 100 100 100 100 100
24 14 9 16 21 26 38 54 48 51 46 37 33 29 25 26 26 35 32 30 26 26 29 37 32 30 34 41 49 42 35 35 42 80 94 87 75 72 57 41 36 56 99 100 95 100 100
17 15 8 13 16 20 30 51 58 57 54 40 35 31 28 27 25 30 36 34 32 29 30 30 37 39 31 36 46 49 51 42 36 35 57 100 95 77 80 96 81 50 33 55 89 100 96
14 11 8 13 17 18 26 43 64 61 59 48 38 33 30 28 26 29 35 39 36 34 33 29 30 41 52 42 43 47 47 50 45 46 54 69 91 96 93 80 72 67 50 42 32 37 63
16 10 9 12 18 17 21 37 67 63 65 61 43 36 32 31 29 28 32 42 40 38 39 33 26 31 32 39 56 43 50 54 59 51 39 37 35 50 66 83 82 60 54 62 61 51 48
22 11 9 12 18 17 20 35 69 66 66 66 52 41 34 32 30 32 30 35 44 43 41 38 32 35 33 35 28 49 52 51 55 62 58 43 45 36 29 36 45 47 57 67 64 65 68
31 13 9 13 20 20 21 32 68 70 69 66 64 48 39 36 32 32 32 32 41 44 46 40 36 37 36 41 37 25 34 67 57 66 52 59 67 61 54 48 34 31 44 48 48 50 58
37 17 10 14 21 22 24 31 62 68 74 71 66 58 48 40 38 35 31 29 37 41 42 41 41 38 34 34 34 38 24 20 72 58 62 64 73 72 70 67 43 50 61 69 44 34 38
41 22 11 16 22 24 26 32 49 71 73 73 64 61 54 47 43 41 37 31 33 41 44 48 47 42 37 34 35 37 42 37 17 67 77 75 84 94 92 65 46 52 76 63 46 34 58
44 30 14 17 24 26 28 37 47 73 74 74 66 61 61 57 49 46 45 40 39 36 42 52 53 48 45 36 33 35 46 49 29 18 70 85 84 87 95 76 45 70 91 72 61 87 55
45 36 17 17 25 27 30 40 48 68 77 75 70 58 63 66 60 53 51 49 43 39 37 50 51 49 49 41 36 39 48 52 45 20 21 57 62 73 76 66 65 66 86 72 77 72 78
42 37 21 19 26 29 31 41 51 65 80 74 74 61 59 68 68 62 54 54 49 41 43 51 49 46 56 50 39 35 41 50 46 26 22 34 51 60 68 62 80 85 75 92 89 53 68
Wind_Speed
5 4 3 4 5 6 9 12 15 19 21 25 28 33 37 41 45 49 52 55 57 61 65 64 65 70 70 70 67 68 68 67 66 67 66 65 62 61 59 59 59 57 58 58 55 54 50
4 6 6 7 8 11 13 16 19 21 25 28 32 37 41 44 49 52 51 53 58 61 65 68 70 68 71 74 71 71 71 70 69 70 69 67 65 64 63 59 59 59 59 57 57 56 53
8 8 10 10 12 15 17 19 22 24 27 29 34 39 42 47 50 50 49 51 54 59 65 69 72 74 72 69 76 75 74 73 71 72 72 71 70 68 66 63 61 60 60 60 58 55 52
10 11 12 15 16 18 20 22 24 26 29 33 38 42 46 49 50 49 49 51 53 54 58 64 72 75 75 72 74 80 79 75 74 72 72 71 73 72 69 68 64 62 63 62 57 58 56
11 11 13 16 18 21 22 23 25 28 31 35 39 44 49 48 50 49 51 53 50 50 53 56 64 73 75 76 78 78 82 78 77 74 73 71 71 73 74 70 69 67 64 61 57 61 62
11 10 13 17 20 21 21 22 25 28 33 37 41 45 48 48 50 51 54 47 49 51 51 53 54 62 74 77 79 80 79 82 80 78 75 73 71 72 74 75 72 68 67 66 64 62 60
11 12 14 17 19 21 23 25 26 28 33 36 41 45 47 49 50 52 50 47 54 45 39 40 47 54 63 74 75 79 81 79 81 83 78 73 74 74 68 69 69 70 72 70 64 64 61
12 12 14 16 18 21 24 25 25 29 33 37 41 44 45 49 50 52 49 52 37 27 21 18 24 39 52 60 67 72 77 79 78 80 77 78 77 65 66 68 71 72 73 70 70 71 64
11 11 15 17 19 23 26 29 30 30 34 38 41 43 44 48 50 51 48 47 28 24 17 14 13 16 29 48 54 64 72 77 77 76 77 77 69 66 71 69 70 71 72 70 70 72 72
13 14 17 19 21 24 27 31 34 32 33 37 40 42 44 47 49 49 47 44 28 23 14 15 15 14 13 15 33 48 59 69 75 73 72 73 68 71 70 69 66 67 64 66 71 72 71
14 16 17 20 22 24 27 31 34 35 34 37 39 40 42 45 47 47 45 43 29 20 16 14 12 13 9 13 8 30 46 56 64 66 71 67 73 74 74 68 66 65 61 65 67 71 73
14 15 16 19 22 25 28 30 33 37 35 37 39 38 40 43 45 44 42 40 30 20 16 18 14 14 7 5 6 10 25 43 52 60 65 64 70 68 73 67 66 61 62 63 62 63 71
16 16 19 21 23 25 28 30 32 36 36 37 38 37 38 42 43 43 39 38 33 24 20 16 15 14 13 8 7 9 10 26 39 45 55 58 61 63 66 72 70 64 65 60 64 65 72
17 18 19 21 24 25 28 29 31 35 39 37 37 37 37 39 41 41 38 35 33 31 21 24 22 19 14 12 2 5 9 14 28 40 43 50 52 56 61 64 66 67 64 66 67 68 73
17 18 19 20 22 25 27 29 31 33 37 40 36 36 36 37 39 38 37 34 31 30 27 22 16 12 12 15 11 9 9 9 18 31 40 45 43 55 56 59 64 65 68 66 56 60 67
19 19 20 21 22 25 27 28 30 32 35 40 36 35 35 35 36 36 34 32 29 28 27 26 24 19 14 9 9 11 9 8 10 20 31 43 46 51 51 52 58 62 56 57 58 63 64
22 21 21 22 23 25 27 30 30 30 32 35 36 35 35 34 34 35 34 30 29 27 25 24 23 22 21 16 8 8 15 14 13 14 20 31 41 49 48 52 52 53 52 47 45 57 54
24 23 23 23 24 25 27 29 32 29 29 32 37 35 35 33 33 33 33 31 29 27 25 22 20 20 20 20 19 11 6 14 18 16 16 19 27 38 52 54 53 44 48 58 42 34 41
27 24 23 23 25 25 27 30 31 30 27 30 34 33 34 32 32 32 31 31 28 27 26 24 19 17 18 16 17 18 13 8 11 20 20 21 23 26 35 44 56 58 55 50 61 65 55
27 27 25 24 25 27 26 29 30 31 27 26 30 33 33 33 31 31 30 30 28 26 25 24 21 18 16 14 13 13 12 11 7 8 17 23 23 24 28 31 38 49 61 64 63 59 56
30 27 25 24 25 26 29 28 30 30 28 24 25 31 32 33 31 30 30 29 29 27 24 23 21 19 17 15 11 13 13 10 11 7 7 14 23 27 28 31 34 39 47 54 62 64 67
31 29 27 25 25 26 29 28 30 30 29 25 22 26 32 32 32 29 29 28 27 28 25 23 21 21 19 17 13 10 10 12 10 11 9 8 13 25 30 35 36 35 34 36 44 51 58
34 30 29 26 25 26 28 29 29 29 30 27 21 19 27 32 33 30 30 29 26 26 28 24 21 18 19 19 16 14 12 12 12 12 16 10 11 10 8 21 35 39 37 38 40 42 46
35 32 30 28 26 25 27 29 28 29 31 28 24 18 20 28 32 30 29 30 29 26 26 28 22 19 20 18 17 17 19 16 16 17 17 14 15 16 16 17 18 14 17 26 36 45 47
36 33 31 30 28 26 27 29 28 29 31 30 27 20 15 21 29 31 30 29 30 29 27 27 25 22 23 23 21 18 16 21 21 20 20 16 17 19 21 20 16 11 10 16 22 23 33
38 34 33 31 29 27 27 29 30 29 31 30 30 25 18 16 24 29 31 30 30 30 26 27 28 25 25 24 24 22 21 18 16 24 24 22 20 20 20 19 17 16 17 16 17 15 22
40 36 34 33 30 28 28 29 30 30 31 30 30 28 24 18 22 26 29 30 28 31 28 27 26 27 28 25 26 26 24 24 20 17 23 23 22 20 18 21 17 15 17 19 21 20 24
42 38 36 34 32 30 29 29 31 32 31 31 30 30 26 23 22 24 29 30 29 31 27 27 27 28 28 27 26 24 23 24 24 21 21 25 23 21 22 22 21 19 20 19 21 22 24
43 40 38 36 34 31 31 30 31 33 32 32 31 31 28 27 24 23 28 27 30 29 28 25 29 29 27 27 25 24 24 26 24 20 23 20 25 26 25 21 20 21 21 25 25 21 20
Wind_Direction
42 25 353 325 313 319 326 327 325 322 318 316 312 306 302 303 304 301 291 281 271 264 259 254 249 247 244 242 240 239 237 235 235 236 236 237 237 239 238 239 239 237 234 236 238 236 231
318 314 311 313 327 335 334 332 329 325 323 318 313 312 311 305 303 302 292 280 274 268 261 257 251 246 243 241 241 241 238 235 233 233 234 234 236 237 238 237 239 239 235 233 233 236 234
298 304 311 321 325 326 326 325 324 322 320 317 315 317 314 310 309 305 295 285 277 269 262 258 254 249 243 240 239 238 239 237 233 232 233 232 234 236 235 237 236 239 238 236 233 236 236
300 302 315 323 322 320 317 316 317 317 316 317 319 320 320 318 314 309 302 295 288 277 266 257 253 251 246 240 237 236 235 237 236 232 231 232 231 232 236 235 235 236 239 237 235 236 238
299 309 321 326 326 322 317 313 311 316 318 321 323 323 323 320 319 314 310 304 295 284 270 262 254 248 246 241 238 235 234 234 235 235 232 230 231 230 232 235 236 234 236 240 235 236 236
298 309 322 322 323 320 314 311 312 314 319 322 326 326 326 324 322 322 319 312 305 297 278 267 259 248 241 239 236 235 233 232 233 234 234 232 230 230 229 231 236 237 235 237 236 236 234
296 307 315 321 325 325 323 319 320 321 323 330 331 332 329 329 329 330 326 322 316 305 290 270 254 244 241 239 236 233 233 231 232 233 233 234 232 229 233 234 233 236 236 235 239 238 237
298 306 315 326 334 336 337 336 329 326 329 332 334 335 334 333 335 336 335 333 326 326 317 292 267 246 240 237 235 233 230 230 231 232 232 231 233 229 231 232 232 233 236 237 236 239 239
305 304 313 325 334 340 341 343 340 330 330 337 340 339 338 338 340 344 345 345 344 345 327 323 332 299 257 237 234 233 228 227 228 230 232 234 233 232 229 230 230 232 234 235 237 238 240
305 303 307 317 325 331 336 341 344 339 337 343 344 343 342 343 345 349 351 356 353 349 355 334 340 332 326 284 245 231 227 226 226 228 230 233 229 230 230 230 231 233 235 236 237 238 239
309 304 309 316 324 329 331 337 341 343 341 346 346 346 345 347 349 353 355 4 352 347 336 327 326 332 335 323 298 244 229 223 221 224 226 230 230 230 230 231 231 232 235 234 235 237 238
317 319 321 326 333 335 334 337 340 344 344 348 349 347 347 351 352 355 1 9 358 350 349 342 339 348 337 28 337 273 236 225 221 219 223 224 227 229 233 230 231 229 234 238 236 237 239
313 321 327 332 335 339 338 339 339 344 345 349 350 349 350 353 355 357 3 9 8 354 346 339 343 333 326 301 1 317 255 226 217 214 219 222 226 229 230 231 230 230 231 234 238 237 239
306 314 321 330 334 333 337 339 341 342 348 348 351 351 351 354 358 358 1 8 15 17 349 326 320 324 316 295 290 239 278 234 218 212 213 214 221 225 226 229 232 234 234 236 238 239 238
305 312 316 321 331 335 334 338 340 340 343 349 350 352 353 355 359 1 359 4 11 15 20 16 5 350 324 299 282 222 217 237 220 213 211 214 210 221 222 226 231 231 230 234 241 243 243
300 308 316 321 323 329 336 335 338 340 342 346 349 350 354 355 359 1 1 0 4 11 15 21 23 10 352 338 281 248 229 234 225 216 216 216 216 222 219 222 226 230 235 233 234 237 239
294 301 308 316 322 326 330 338 336 338 340 343 348 349 352 356 358 359 1 1 359 3 9 14 21 21 14 7 344 288 251 234 236 239 221 218 220 223 221 220 215 227 227 239 243 241 239
286 296 302 309 319 324 331 331 337 338 337 342 347 350 350 354 355 358 358 0 1 1 0 6 13 18 22 21 17 4 323 253 236 239 240 227 224 220 226 225 223 219 225 217 217 222 234
281 290 296 304 312 320 327 331 332 336 337 339 344 347 350 351 356 356 356 357 360 0 359 355 359 6 14 19 17 21 9 340 261 246 241 244 239 228 230 232 231 226 219 222 229 230 236
277 284 291 300 309 315 321 330 328 333 335 335 339 343 348 350 354 353 354 355 357 360 358 354 349 349 356 12 9 10 5 7 342 281 253 242 249 244 238 230 236 234 234 232 232 231 229
273 278 283 291 304 311 317 324 326 330 332 331 334 339 344 349 350 351 351 354 353 355 358 359 350 341 337 344 346 339 346 349 352 351 292 262 250 250 253 251 248 240 238 240 241 240 242
271 274 278 285 295 306 312 318 323 324 329 328 326 335 337 344 348 350 348 349 352 349 350 355 355 351 336 332 329 318 318 315 307 311 311 284 266 252 254 257 256 254 248 250 249 248 248
268 271 274 279 288 298 306 312 321 319 324 326 322 329 334 339 342 350 345 345 348 348 343 346 352 352 339 339 328 307 299 288 284 282 280 306 300 293 281 263 260 262 255 255 255 256 256
264 268 270 274 282 292 300 306 315 315 318 323 320 317 329 330 337 345 344 341 342 346 342 337 347 343 338 334 330 319 292 278 277 274 277 291 288 294 297 287 275 273 267 262 261 256 259
260 264 266 269 276 285 293 299 307 312 314 318 318 310 316 321 326 337 338 341 336 339 342 338 340 339 335 335 337 335 319 294 269 267 271 273 286 296 298 299 297 294 293 285 277 275 266
257 261 262 265 271 279 288 295 300 308 310 315 314 310 303 307 310 324 330 336 333 333 339 339 337 332 330 333 331 334 337 325 304 257 262 263 275 281 291 289 295 310 304 275 270 265 265
254 258 260 262 267 274 283 291 295 302 306 310 311 309 305 301 302 312 319 325 330 333 335 333 331 327 327 332 328 331 335 329 325 280 247 251 262 277 285 282 293 308 294 289 287 287 279
252 255 257 258 262 269 278 287 292 296 301 304 307 305 304 298 297 306 311 319 320 327 331 329 327 326 329 325 327 328 326 324 321 311 261 249 259 275 276 276 290 289 288 292 298 291 285
248 252 255 256 259 266 274 283 289 291 296 299 300 300 299 299 295 298 304 310 308 320 320 323 322 326 326 326 327 324 322 317 321 322 271 256 253 260 268 268 282 283 281 298 297 301 302